Погода в Дубровском

Россия / Вологодская область     59°20′31″N   39°48′44″E
темп.,
°C
ветер,
м/с
пор.,
м/с
влажн.,
%
обл.,
%
осадки,
мм/ч
давл.,
гПа
погр.,
м
23 сентября, чт
чт2300:00+6в51092100 0.0 1018505
03:00+6вюв4896100 0.0 1018368
06:00+6вюв3798100 0.0 1019298
09:00+8юв478938 0.0 1018365
12:00+10юв5777100 0.0 1017785
15:00+11вюв5674100 0.0 1016970
18:00+9вюв4983100 0.0 1014574
21:00+9вюв51292100 0.1 1012727
24 сентября, пт
пт2400:00+9юв51092100 0.0 1010531
03:00+9юв51195100 0.1 1008548
06:00+9юв51196100 1.5 1006666
09:00+9ююв4896100 2.8 1006608
12:00+10ююв578791 0.1 1006607
15:00+11ююв587167 0.6 10051163
18:00+8ююв4886100 0.5 1007211
21:00+6ююв4109334 0.5 1007272
25 сентября, сб
сб2500:00+5юв389467 0.0 1008176
03:00+4юв389483 0.0 1008173
06:00+6юв3991100 0.0 1008262
09:00+9ююв488182 0.0 1008368
12:00+9ююв3980100 0.0 1008456
15:00+11ююв4871100 0.0 1008703
18:00+9ююв4976100 0.0 1008375
21:00+8ююв3982100 0.0 1008364
26 сентября, вс
вс2600:00+8юв3985100 0.2 1007350
03:00+7юв3893100 0.3 1007175
06:00+7юв389498 0.1 1008253
09:00+9вюв4788100 0.3 1009392
12:00+9в3691100 0.1 1012374
15:00+10в248379 0.5 1015238
18:00+9св378459 0.3 1017187
21:00+7всв37915 0.3 1019191
27 сентября, пн
пн2700:00+7с378994 0.0 1021176
03:00+7с4990100 0.0 1023309
06:00+5с41096100 0.0 1024280
09:00+8ссв498886 0.0 1025498
12:00+8ссв4888100 0.0 1027507
15:00+9ссв4789100 0.4 1028517
18:00+8ссв368999 0.1 1029239
21:00+7св3796100 0.2 1030295